Temperature
1 2 2 2 2 2 2 3 3 3 3 4 4 4 5 5 5 5 5 5 5 5 6 6 6 6 6 6 6 6 7 7 6 6 6 6 7 7 7 7 7 7 7
1 1 1 2 2 2 2 2 2 3 3 3 4 4 4 4 5 5 5 5 5 5 5 5 5 5 5 6 6 6 6 6 6 6 6 6 6 6 6 6 6 6 7
1 1 1 1 1 1 1 2 2 2 3 3 3 4 4 4 4 4 4 5 5 5 5 5 5 5 5 5 5 5 5 6 6 6 6 6 6 6 6 6 6 6 6
0 0 1 1 1 1 1 1 2 2 2 3 3 3 3 4 4 4 4 4 4 4 4 4 5 5 5 5 5 5 5 5 5 5 5 5 5 5 5 5 5 5 5
-0 -0 0 0 0 1 1 1 1 1 2 2 2 3 3 3 3 4 4 4 4 4 4 4 4 4 4 4 5 5 5 5 5 5 5 5 5 5 5 5 5 5 5
-1 -1 -0 -0 0 0 0 1 1 1 1 2 2 2 2 3 3 3 3 3 3 3 3 4 4 4 4 4 4 4 4 4 4 4 4 4 4 5 4 4 4 4 4
-2 -1 -1 -1 -0 -0 0 0 0 1 1 1 2 2 2 2 3 3 3 3 3 3 3 3 3 3 3 3 3 4 4 4 4 4 4 4 4 4 4 4 4 3 3
-2 -2 -1 -1 -1 -0 -0 -0 0 0 1 1 1 1 1 2 2 2 2 3 3 3 3 3 3 3 3 3 3 3 3 3 3 3 3 3 3 3 3 3 3 3 3
-2 -2 -2 -2 -1 -1 -1 -0 -0 -0 0 0 1 1 1 1 2 2 2 2 2 2 2 2 2 2 2 2 2 2 2 3 2 2 3 2 2 2 2 2 2 2 2
-3 -3 -2 -2 -2 -1 -1 -1 -1 -0 -0 0 0 0 1 1 1 2 1 1 1 1 1 2 2 2 2 2 2 2 2 2 2 2 2 2 2 2 2 2 1 1 1
-3 -3 -3 -2 -2 -2 -1 -1 -1 -1 -1 -0 -0 -0 0 0 1 1 1 1 1 1 1 1 1 1 1 1 1 1 2 1 1 1 2 2 1 1 1 1 1 1 1
-4 -3 -3 -3 -2 -2 -2 -2 -1 -1 -1 -1 -1 -0 -0 -0 0 0 0 0 0 0 0 0 0 0 0 1 1 1 1 1 1 1 1 1 1 1 1 1 1 0 0
-4 -4 -3 -3 -3 -3 -2 -2 -2 -2 -1 -1 -1 -1 -1 -1 -1 -0 -0 -0 -0 -0 -0 -0 -0 -0 -0 0 0 0 0 0 0 0 0 0 0 0 0 0 0 -0 -0
-5 -4 -4 -4 -3 -3 -3 -3 -2 -2 -2 -2 -2 -1 -1 -1 -1 -1 -1 -1 -1 -1 -1 -1 -1 -1 -1 -1 -0 -0 -1 -1 -1 -0 -0 -0 -0 -0 -0 -0 -1 -1 -1
-5 -5 -4 -4 -4 -4 -3 -3 -3 -3 -3 -3 -2 -2 -2 -2 -2 -1 -1 -1 -1 -1 -1 -2 -2 -2 -1 -1 -1 -1 -1 -1 -1 -1 -1 -1 -1 -1 -1 -1 -1 -1 -1
-6 -5 -5 -5 -5 -4 -4 -4 -3 -3 -3 -3 -3 -3 -2 -2 -2 -2 -2 -2 -2 -2 -2 -2 -2 -2 -2 -2 -2 -2 -2 -2 -2 -2 -2 -2 -2 -2 -2 -2 -2 -2 -2
-6 -6 -6 -5 -5 -5 -5 -4 -4 -4 -4 -3 -3 -3 -3 -3 -3 -3 -3 -3 -3 -2 -3 -3 -3 -3 -3 -2 -2 -2 -2 -2 -2 -2 -2 -2 -2 -2 -2 -2 -3 -3 -3
-6 -6 -6 -6 -6 -6 -5 -5 -5 -5 -5 -4 -4 -4 -3 -3 -3 -3 -3 -3 -3 -3 -3 -3 -3 -3 -3 -3 -3 -3 -3 -3 -3 -3 -3 -3 -3 -3 -3 -3 -3 -3 -3
-7 -7 -6 -6 -6 -6 -6 -6 -5 -5 -5 -5 -5 -4 -4 -4 -4 -3 -3 -3 -3 -4 -4 -4 -4 -4 -4 -3 -3 -3 -3 -3 -3 -3 -3 -3 -3 -4 -4 -4 -4 -4 -4
-7 -7 -7 -7 -7 -7 -6 -6 -6 -6 -6 -6 -6 -5 -5 -5 -4 -4 -4 -4 -4 -4 -4 -4 -4 -4 -4 -4 -4 -4 -4 -4 -4 -4 -4 -4 -4 -4 -4 -4 -4 -4 -4
-8 -7 -8 -7 -7 -7 -7 -7 -7 -7 -6 -6 -6 -6 -6 -6 -5 -5 -5 -5 -5 -5 -5 -5 -5 -5 -5 -5 -5 -5 -4 -4 -4 -4 -4 -4 -4 -5 -5 -5 -5 -5 -5
-8 -8 -8 -8 -8 -8 -8 -7 -7 -7 -7 -7 -7 -7 -7 -6 -6 -6 -6 -6 -6 -6 -5 -5 -5 -5 -5 -5 -5 -5 -5 -5 -5 -5 -5 -5 -5 -5 -5 -5 -5 -5 -5
-9 -9 -9 -8 -8 -8 -8 -8 -8 -8 -8 -8 -8 -7 -7 -7 -7 -7 -7 -7 -7 -6 -6 -6 -6 -6 -6 -6 -6 -6 -6 -6 -6 -6 -6 -6 -6 -6 -6 -6 -6 -6 -6
-9 -9 -9 -9 -9 -9 -9 -9 -9 -9 -9 -8 -8 -8 -8 -8 -8 -8 -7 -7 -7 -7 -7 -7 -7 -7 -7 -7 -7 -7 -7 -7 -6 -6 -6 -6 -6 -6 -6 -6 -7 -7 -7
-10 -10 -10 -10 -10 -10 -9 -9 -9 -9 -9 -9 -9 -9 -8 -8 -8 -8 -8 -8 -8 -8 -8 -8 -7 -7 -7 -7 -7 -7 -7 -7 -7 -7 -7 -7 -7 -7 -7 -7 -7 -7 -7
-10 -10 -10 -10 -10 -10 -10 -10 -10 -10 -10 -9 -9 -9 -9 -9 -9 -9 -8 -8 -8 -8 -8 -8 -8 -8 -8 -8 -8 -8 -8 -8 -7 -7 -7 -7 -7 -7 -7 -7 -7 -7 -7
Wind_Speed
3 3 4 4 4 4 4 4 4 4 4 4 5 5 5 5 6 6 6 6 7 6 5 6 5 4 4 3 3 3 2 2 3 2 1 1 2 2 2 3 4 5 5
3 3 4 3 3 4 4 4 4 4 4 4 5 5 6 6 6 7 7 7 7 7 7 6 6 5 5 4 3 4 3 3 3 3 2 2 2 3 3 3 3 5 5
3 3 3 3 3 4 4 4 4 4 4 4 4 5 6 7 7 7 7 7 7 7 7 7 7 6 6 4 4 4 3 2 2 3 3 2 2 2 2 2 2 3 4
4 4 4 4 4 4 4 4 4 4 4 4 4 5 5 6 7 6 6 6 6 6 6 7 7 7 7 6 5 5 4 3 3 3 3 3 2 2 2 2 2 2 2
4 4 5 4 4 4 4 5 4 4 5 4 4 4 5 5 6 6 6 6 6 6 6 6 6 7 7 7 5 5 5 4 3 3 3 3 3 3 3 2 3 2 2
5 5 4 4 4 5 5 4 4 4 4 3 4 5 5 5 6 8 7 6 6 7 7 6 6 7 7 8 8 8 8 7 6 5 4 5 5 4 3 3 2 2 3
5 5 4 3 3 4 4 4 4 4 3 4 4 5 5 6 8 9 8 6 6 7 7 7 5 6 6 6 6 7 7 9 9 7 6 6 6 5 5 4 4 3 4
5 5 5 4 3 3 3 4 4 3 3 4 4 4 5 6 9 10 9 6 6 6 6 7 6 6 6 7 6 5 5 6 7 6 6 6 5 5 6 5 4 2 2
6 6 6 5 4 3 4 4 3 3 4 4 3 4 5 6 9 10 9 6 5 5 5 6 6 6 8 9 7 6 5 5 6 8 7 7 8 8 6 3 3 2 3
7 7 7 5 4 4 4 4 4 3 4 3 3 4 4 5 9 11 10 6 6 5 5 5 7 7 9 10 8 7 7 6 4 4 4 5 5 6 8 6 6 4 3
7 7 6 6 5 4 4 3 3 3 3 3 3 2 2 3 6 10 11 7 7 6 5 5 6 8 9 9 8 7 8 6 5 5 4 3 3 3 5 6 6 5 5
7 7 6 6 5 4 3 3 2 2 2 2 2 1 1 1 3 7 10 9 7 6 6 5 5 9 9 9 8 8 8 6 4 4 4 4 4 4 3 4 5 5 5
8 7 7 6 4 3 3 2 2 1 1 1 1 1 1 1 2 4 7 8 7 5 4 6 6 8 7 7 8 8 6 5 4 4 5 5 4 3 2 1 1 2 2
7 7 6 5 5 4 3 2 1 1 1 2 1 1 1 1 2 2 3 4 5 4 3 4 5 5 4 5 6 5 4 4 5 4 4 2 2 2 3 2 2 2 1
7 6 5 4 4 3 3 2 2 2 1 2 2 1 2 2 2 3 3 3 4 4 3 2 2 2 3 3 3 4 4 4 4 3 3 3 3 3 2 2 2 2 3
7 6 4 4 4 3 3 3 4 4 4 4 4 2 1 1 1 2 3 3 4 5 3 2 3 3 4 4 3 3 3 4 4 4 4 4 4 4 3 2 2 3 4
6 6 4 4 3 3 3 2 3 5 5 5 5 5 3 1 0 1 2 3 3 4 2 2 3 3 3 3 3 3 3 3 3 4 4 4 4 3 3 3 3 3 3
5 5 5 3 3 3 2 2 2 2 3 4 5 5 5 3 2 1 1 2 1 2 2 2 2 2 2 2 3 3 3 3 3 4 4 4 4 4 3 4 4 4 4
5 4 3 3 3 3 3 2 2 2 2 3 3 4 6 5 4 4 2 1 1 1 1 1 1 1 2 2 2 3 3 3 3 3 4 4 4 3 4 4 4 5 4
4 5 4 3 3 3 3 2 2 3 3 3 3 4 4 3 3 3 3 2 1 0 1 1 1 1 1 1 2 2 2 3 3 4 3 3 3 3 4 4 4 4 4
3 4 5 3 3 3 3 2 2 2 3 3 3 4 5 3 2 2 2 2 2 1 1 1 0 0 1 1 1 2 2 2 3 3 3 3 3 3 3 3 3 3 3
3 3 3 3 3 3 3 2 2 2 3 3 3 4 6 4 3 3 3 3 3 2 2 1 1 1 0 1 1 1 1 2 2 2 2 2 3 3 3 3 3 3 3
2 3 3 3 3 3 4 3 3 2 3 3 3 3 3 3 3 2 2 3 3 2 2 2 1 1 1 1 2 2 2 2 2 2 2 2 2 2 2 3 3 3 3
2 2 2 2 2 2 3 3 2 3 3 3 3 3 3 3 2 3 3 3 3 2 2 2 2 2 2 2 2 3 3 4 4 4 4 3 3 2 2 3 3 4 4
2 2 2 2 2 2 3 3 3 3 3 3 3 3 3 3 3 2 2 2 2 2 3 3 2 2 2 2 3 3 3 4 4 4 4 3 3 3 3 3 3 3 3
1 2 2 2 2 2 2 2 3 3 2 2 2 2 3 3 3 2 2 2 2 2 2 2 3 3 3 3 3 3 3 4 4 3 2 2 2 2 2 3 3 3 3
Wind_Direction
248 239 242 247 250 241 237 244 246 240 230 227 218 210 208 205 194 191 195 193 192 191 190 188 194 186 188 195 192 195 198 184 217 242 231 229 191 185 205 214 217 218 226
256 246 242 249 250 247 247 248 247 245 243 235 222 213 214 210 198 195 197 198 195 194 194 191 196 191 191 194 196 201 201 193 199 221 240 240 217 195 192 204 225 226 228
267 256 253 254 254 254 255 258 252 249 247 234 221 214 219 214 202 203 202 201 200 199 196 193 196 192 197 196 196 197 199 198 195 202 223 238 227 202 198 226 230 243 243
281 265 255 255 258 261 264 266 263 252 245 233 225 221 223 213 200 200 201 200 199 201 200 197 195 197 197 195 196 195 189 186 184 188 207 222 226 215 185 207 247 252 257
289 273 264 261 263 266 268 269 268 258 251 240 228 227 227 212 197 192 197 200 194 197 198 198 199 198 200 199 198 188 185 188 191 194 210 221 219 204 207 207 233 264 271
304 288 281 263 260 261 260 264 266 260 256 244 227 231 225 219 199 198 202 199 197 197 197 197 199 199 201 204 205 200 194 193 198 205 217 220 224 218 208 206 212 243 257
316 311 310 299 266 258 260 261 258 259 258 249 231 230 226 221 204 203 206 202 199 199 195 193 199 204 200 198 205 210 215 217 212 206 210 219 220 211 200 207 218 233 252
322 320 313 306 295 281 271 265 264 267 258 252 243 233 230 224 209 205 202 202 202 202 200 197 194 195 201 196 197 206 217 223 223 215 211 219 223 213 208 210 216 233 278
324 320 312 305 299 296 285 277 276 273 263 255 251 241 232 226 213 205 199 197 199 202 204 201 197 197 203 200 196 201 214 229 236 228 226 227 225 215 206 188 196 215 256
320 315 312 307 299 292 287 282 278 269 259 251 254 243 233 229 215 202 197 194 195 199 201 204 204 205 205 202 200 198 211 218 213 229 235 238 227 215 207 206 205 218 238
317 318 316 310 301 293 292 289 274 267 261 254 245 241 233 225 203 199 199 194 191 195 201 203 208 207 209 212 213 209 218 216 208 209 213 217 213 209 215 220 216 215 226
324 323 323 314 307 309 301 296 285 268 252 251 238 229 232 226 208 200 201 203 196 195 202 202 205 207 213 219 222 221 219 217 203 203 208 215 216 215 218 225 229 236 244
328 326 325 322 316 312 301 298 306 302 283 275 235 216 215 188 181 193 197 198 199 198 202 202 206 211 218 220 222 219 211 201 198 206 214 220 218 207 194 196 231 252 286
326 324 324 327 326 327 321 314 315 311 312 297 271 234 204 179 166 170 184 191 196 199 195 194 202 208 221 222 216 213 209 206 204 207 210 211 197 190 198 194 212 210 247
323 320 322 326 323 327 330 320 314 300 300 286 261 242 210 212 212 192 173 177 186 190 174 176 183 191 205 211 202 198 196 200 207 193 191 199 208 209 214 200 204 216 236
324 326 326 328 328 331 337 342 340 339 342 346 341 318 302 283 183 175 183 175 171 169 159 171 198 202 204 200 192 189 191 197 197 194 198 201 206 210 213 213 215 217 225
322 323 324 326 329 330 335 343 347 354 356 359 358 356 347 339 331 198 192 181 181 169 173 187 201 208 206 199 196 195 202 200 193 191 199 202 204 209 213 220 221 225 235
322 323 324 324 328 329 331 337 342 349 357 358 356 355 355 353 5 11 185 153 167 177 175 187 204 208 203 203 203 199 198 191 191 194 200 202 206 209 213 218 222 226 238
325 327 324 328 331 333 340 348 353 354 360 358 360 359 358 4 21 25 34 95 160 190 195 185 191 204 206 210 210 202 196 197 195 196 202 203 205 209 219 221 222 230 239
326 327 332 334 340 346 351 358 360 1 4 5 3 357 359 19 33 25 23 23 22 293 235 204 196 208 203 211 210 198 198 203 200 201 205 204 206 210 216 222 226 229 236
330 334 342 346 348 350 353 1 6 8 4 2 2 -0 1 16 30 27 21 16 11 1 359 3 16 223 195 193 212 206 205 212 212 208 210 210 209 216 221 224 229 232 236
333 340 351 354 355 357 358 4 10 9 5 2 359 359 359 11 28 25 18 10 13 9 4 15 5 331 263 209 207 203 209 218 217 209 209 213 214 215 218 224 228 233 234
341 348 356 357 356 352 357 4 7 11 8 4 1 2 360 7 15 14 11 10 10 6 1 10 16 356 325 293 259 228 222 230 224 211 207 214 218 219 222 225 227 238 242
345 349 355 356 356 356 355 357 357 357 2 360 359 358 354 358 3 4 6 3 360 357 354 352 351 353 349 327 305 283 268 258 245 229 212 210 219 228 227 228 233 236 241
342 346 351 351 347 346 346 348 348 348 349 347 346 347 346 351 356 357 358 356 357 359 352 338 323 327 337 334 316 302 301 296 283 258 229 211 211 220 224 230 237 238 240
335 338 337 337 335 333 330 329 330 331 329 330 334 336 338 336 335 339 344 352 351 343 335 325 326 327 324 319 318 320 322 323 319 304 267 210 204 217 219 231 230 232 233
Height
1465 1465 1465 1466 1467 1467 1468 1468 1470 1471 1473 1475 1477 1478 1480 1483 1485 1488 1492 1495 1498 1501 1504 1506 1509 1512 1514 1517 1519 1521 1523 1525 1525 1526 1528 1530 1532 1533 1534 1535 1536 1537 1538
1461 1461 1462 1462 1462 1463 1463 1464 1466 1467 1468 1470 1472 1474 1475 1478 1480 1483 1486 1490 1492 1495 1498 1501 1504 1507 1509 1512 1515 1516 1519 1520 1522 1522 1524 1526 1528 1529 1530 1531 1532 1533 1533
1458 1457 1457 1458 1458 1458 1459 1460 1461 1462 1463 1465 1467 1468 1471 1473 1475 1478 1481 1484 1487 1490 1493 1496 1499 1501 1504 1507 1510 1512 1514 1516 1518 1519 1519 1522 1523 1524 1525 1526 1527 1528 1529
1454 1453 1453 1453 1454 1454 1455 1455 1456 1457 1458 1460 1461 1463 1466 1467 1469 1472 1476 1479 1482 1485 1488 1491 1493 1496 1499 1502 1504 1507 1509 1511 1513 1514 1515 1517 1518 1519 1520 1521 1522 1523 1524
1450 1449 1449 1449 1450 1450 1450 1451 1452 1453 1454 1455 1456 1458 1460 1462 1463 1466 1470 1473 1476 1479 1483 1485 1488 1491 1494 1497 1499 1501 1504 1506 1507 1509 1510 1512 1513 1514 1515 1515 1516 1517 1518
1446 1445 1444 1444 1445 1446 1447 1447 1448 1449 1449 1450 1451 1452 1454 1455 1458 1461 1464 1467 1470 1474 1477 1480 1482 1485 1488 1491 1494 1496 1498 1500 1502 1503 1505 1506 1507 1509 1510 1510 1511 1512 1512
1444 1442 1441 1441 1441 1442 1442 1443 1444 1444 1445 1445 1446 1447 1448 1450 1452 1456 1459 1462 1465 1468 1471 1474 1477 1479 1482 1485 1488 1490 1492 1495 1497 1499 1499 1500 1502 1503 1504 1505 1506 1506 1507
1441 1440 1439 1438 1437 1437 1438 1438 1439 1440 1440 1441 1442 1442 1443 1444 1447 1450 1453 1457 1460 1462 1465 1468 1471 1473 1476 1479 1482 1484 1486 1489 1491 1493 1494 1495 1497 1498 1499 1501 1501 1501 1502
1439 1437 1436 1435 1434 1434 1434 1434 1435 1436 1436 1436 1437 1437 1438 1438 1440 1443 1447 1450 1453 1456 1460 1462 1465 1468 1471 1474 1476 1478 1480 1483 1485 1487 1489 1490 1492 1493 1494 1495 1496 1496 1495
1437 1435 1434 1433 1432 1431 1431 1431 1432 1432 1432 1432 1433 1433 1433 1433 1435 1438 1441 1445 1447 1451 1454 1456 1459 1462 1465 1467 1470 1472 1474 1476 1479 1481 1483 1485 1486 1487 1488 1490 1490 1491 1490
1435 1433 1431 1431 1430 1429 1429 1429 1429 1429 1429 1428 1428 1429 1429 1429 1430 1433 1436 1439 1441 1445 1447 1450 1453 1456 1459 1462 1464 1466 1468 1471 1473 1474 1476 1478 1479 1481 1482 1484 1485 1485 1485
1433 1431 1429 1428 1427 1426 1426 1426 1426 1426 1425 1425 1424 1425 1425 1426 1427 1429 1432 1435 1437 1440 1442 1444 1447 1451 1454 1456 1458 1460 1463 1465 1467 1468 1469 1471 1473 1474 1476 1477 1479 1479 1480
1431 1429 1428 1426 1425 1425 1424 1423 1423 1423 1422 1422 1421 1422 1422 1423 1424 1426 1428 1430 1433 1435 1437 1440 1443 1446 1448 1450 1452 1455 1457 1459 1461 1462 1463 1465 1467 1468 1470 1471 1472 1473 1473
1429 1427 1425 1424 1423 1423 1422 1422 1421 1421 1420 1420 1419 1420 1420 1421 1422 1423 1424 1426 1429 1431 1433 1435 1438 1441 1443 1444 1446 1449 1451 1453 1455 1456 1458 1460 1461 1462 1463 1464 1465 1466 1466
1427 1425 1423 1422 1422 1421 1420 1420 1420 1420 1420 1419 1418 1418 1418 1418 1419 1420 1421 1422 1424 1427 1429 1431 1434 1435 1437 1439 1441 1443 1445 1447 1449 1451 1453 1454 1455 1456 1457 1458 1459 1459 1460
1425 1423 1422 1421 1420 1419 1418 1418 1418 1419 1418 1417 1417 1417 1417 1418 1418 1418 1420 1421 1422 1424 1426 1427 1429 1431 1433 1435 1436 1438 1440 1442 1444 1446 1447 1448 1449 1450 1451 1452 1453 1454 1453
1424 1422 1421 1420 1419 1418 1417 1417 1416 1416 1416 1416 1416 1416 1416 1416 1416 1417 1418 1418 1419 1421 1422 1424 1425 1427 1429 1430 1432 1433 1435 1437 1439 1440 1442 1443 1444 1444 1445 1446 1447 1448 1448
1422 1420 1419 1418 1418 1417 1417 1416 1416 1415 1414 1414 1415 1415 1415 1415 1415 1415 1416 1416 1417 1418 1419 1421 1422 1424 1426 1427 1428 1429 1431 1432 1434 1435 1436 1437 1438 1439 1440 1441 1442 1443 1443
1420 1419 1418 1417 1417 1416 1416 1415 1415 1414 1414 1413 1413 1413 1414 1413 1413 1414 1414 1415 1415 1416 1417 1418 1420 1422 1422 1424 1424 1425 1426 1427 1429 1430 1431 1432 1433 1434 1435 1436 1437 1438 1438
1418 1418 1417 1416 1415 1415 1415 1414 1414 1414 1413 1412 1412 1412 1412 1412 1412 1412 1412 1413 1414 1414 1415 1416 1417 1419 1419 1420 1420 1421 1421 1423 1424 1425 1426 1427 1428 1429 1430 1430 1431 1432 1432
1417 1417 1416 1415 1415 1414 1414 1413 1413 1413 1413 1412 1412 1412 1412 1411 1411 1411 1411 1412 1412 1413 1414 1414 1415 1416 1416 1416 1416 1417 1417 1418 1419 1420 1421 1422 1423 1424 1424 1425 1426 1427 1427
1417 1416 1415 1414 1414 1414 1413 1413 1413 1412 1412 1411 1411 1411 1410 1410 1410 1410 1410 1411 1411 1411 1412 1412 1412 1412 1412 1412 1413 1413 1413 1414 1415 1416 1417 1418 1418 1419 1419 1420 1421 1422 1422
1416 1415 1414 1414 1414 1413 1413 1412 1412 1411 1411 1411 1410 1410 1410 1409 1409 1409 1409 1409 1410 1410 1410 1409 1409 1409 1409 1409 1410 1410 1410 1411 1411 1412 1413 1413 1414 1414 1415 1416 1416 1417 1417
1416 1415 1414 1414 1413 1413 1412 1411 1411 1411 1410 1410 1410 1410 1410 1409 1408 1408 1408 1408 1408 1408 1408 1407 1407 1407 1406 1406 1406 1407 1407 1407 1407 1408 1409 1409 1410 1411 1411 1412 1413 1413 1414
1415 1414 1413 1413 1412 1412 1411 1411 1410 1410 1409 1409 1409 1409 1409 1408 1407 1407 1407 1407 1407 1406 1406 1405 1405 1405 1404 1404 1404 1404 1404 1404 1404 1405 1405 1406 1406 1407 1408 1409 1409 1409 1409
1414 1414 1413 1412 1411 1411 1410 1410 1409 1409 1409 1408 1408 1408 1407 1407 1406 1406 1406 1405 1405 1405 1404 1404 1404 1403 1403 1402 1402 1402 1402 1401 1401 1402 1402 1403 1403 1404 1404 1405 1405 1405 1405